Tracking 23114 objects as of 16-May-2021
HD Live streaming from Space Station
objects crossing your sky now

SATCOM 3 DEB

Track SATCOM 3 DEB now!


NORAD ID: 32984
Int'l Code: 1979-101K
Perigee: 8,268.0 km
Apogee: 35,532.5 km
Inclination: 9.2 °
Period: 788.5 minutes
Semi major axis: 28271 km
RCS: 0.003 m2 (small)
Launch date: December 7, 1979
Source: United States (US)
Launch site: AIR FORCE EASTERN TEST RANGE (AFETR)

Note: This is SATELLITE DEBRIS
aabbcc
Your satellite tracking list
Your tracking list is empty




NASA's NSSDC Master Catalog

Two Line Element Set (TLE):
1 32984U 79101K   21130.57220889 -.00000125  00000-0  00000-0 0  9991
2 32984   9.2439 267.4947 4821955 112.1038 289.3619  1.82635795 55626
Source of the keplerian elements: AFSPC